Theta_e
293 294 294 294 294 294 295 295 295 296 296 296 296 296 297 298 299 297 295 296 291 285 282 285 286 282 280 280 276 276 283 282 279 278 276 272 267 272 270 274 274 274 272 272 275 273 269 282 282 278 281 281 283 282
292 293 293 294 294 294 294 294 295 295 296 295 295 296 296 296 297 298 291 297 297 287 284 288 288 290 289 287 282 279 279 276 281 278 273 273 269 268 270 267 279 273 276 272 275 275 282 283 284 286 285 283 283 282
292 292 292 293 293 294 294 294 294 294 295 295 295 295 296 296 297 296 292 293 293 285 285 282 284 287 290 290 291 280 277 283 281 282 276 275 273 274 268 269 272 278 279 276 276 280 280 282 282 283 287 284 285 284
292 292 292 292 293 293 293 293 294 294 294 294 294 294 295 295 296 296 291 293 290 285 282 283 286 286 290 290 290 288 287 286 285 280 271 269 269 278 271 275 274 277 278 273 273 279 280 281 282 284 284 284 284 284
292 292 292 292 292 293 293 293 293 294 294 294 294 294 294 295 295 294 293 293 293 287 279 275 279 285 289 290 288 287 287 283 276 274 273 269 271 273 269 273 269 278 277 276 273 280 280 280 282 282 281 281 282 281
292 291 291 291 292 293 293 293 293 293 293 293 293 293 294 294 294 288 281 289 293 292 281 275 281 278 283 288 287 286 285 280 277 274 270 272 280 277 266 262 277 279 280 281 278 280 280 281 282 281 281 282 282 283
291 292 292 291 292 292 293 293 292 292 293 293 292 293 293 294 290 284 280 282 293 291 281 276 277 279 283 284 285 284 284 280 279 273 270 277 279 278 268 264 279 278 279 279 279 279 277 279 278 279 278 278 277 276
290 290 290 291 291 292 292 293 292 292 292 292 292 292 293 293 292 286 288 293 294 286 284 276 274 278 284 281 281 284 282 282 281 276 274 275 278 276 269 276 280 279 279 279 279 277 277 275 276 273 273 272 270 271
290 291 293 291 291 292 292 293 292 292 292 292 292 292 288 286 282 280 292 293 291 285 278 275 273 272 284 281 281 281 283 277 281 277 276 278 273 272 276 278 276 275 275 275 270 269 269 270 270 269 268 267 267 268
290 292 291 291 291 291 292 292 292 292 292 292 288 282 278 277 291 290 285 281 281 281 281 275 271 274 281 277 276 275 278 275 272 274 279 275 269 278 276 268 270 269 267 266 266 266 260 261 263 265 264 265 264 264
290 291 291 290 290 290 291 291 292 292 291 285 280 278 278 290 283 279 275 275 276 273 275 277 275 275 278 272 269 276 271 274 269 272 270 265 264 277 266 263 264 265 264 261 261 262 262 261 261 261 260 258 258 258
288 289 290 290 290 290 290 291 291 288 285 285 284 285 281 277 277 273 270 273 270 271 275 275 276 279 277 280 276 275 273 273 267 268 266 263 268 264 263 261 260 260 259 257 256 257 259 260 259 258 257 256 255 255
287 288 288 288 288 288 289 288 292 292 290 285 281 278 277 276 271 266 265 261 270 273 275 272 276 278 278 279 276 274 270 269 269 269 264 265 261 257 255 256 254 253 253 253 254 254 255 255 254 253 253 252 252 252
285 286 286 287 288 287 287 286 288 292 284 277 274 269 270 268 264 270 266 271 272 273 276 278 274 276 277 274 274 269 269 268 265 264 261 263 259 256 253 252 252 251 250 252 250 251 252 252 252 251 250 249 250 251
284 284 283 285 286 285 284 282 280 272 270 267 268 265 258 255 259 256 255 257 265 276 279 275 273 275 272 271 272 266 265 264 265 263 263 257 256 254 252 250 249 249 249 248 247 248 250 249 248 247 246 246 247 249
283 279 277 285 285 282 280 274 269 268 262 260 254 258 258 260 260 256 256 261 262 276 279 274 273 271 269 270 266 263 262 259 264 260 251 252 253 252 249 247 247 246 246 246 245 246 248 247 247 247 244 245 246 247
279 266 280 283 283 276 275 265 265 259 258 257 253 251 254 255 255 255 255 257 260 265 270 271 269 268 271 266 261 257 262 259 248 246 250 251 251 249 246 245 244 244 244 244 244 244 245 245 244 244 246 246 245 246
267 273 280 281 275 267 260 260 258 258 254 254 255 253 255 254 254 255 255 257 259 265 269 269 270 265 264 263 260 256 248 248 250 250 249 248 246 244 245 246 243 243 244 244 244 243 244 245 245 246 244 246 246 246
274 276 278 277 271 258 257 257 257 253 253 254 256 256 256 255 256 256 256 257 258 260 264 267 265 259 257 253 252 251 252 252 251 250 248 244 247 245 244 243 243 243 244 243 243 244 244 243 245 246 247 248 248 248
276 275 275 273 268 258 254 252 255 254 252 253 255 254 255 255 255 254 255 254 257 257 251 253 250 247 249 249 248 250 250 251 250 247 245 247 245 243 244 245 246 244 244 243 243 246 244 245 246 246 246 247 247 248
266 266 269 262 256 255 252 251 252 252 251 252 253 252 254 256 254 252 252 253 251 246 247 246 246 246 245 245 245 245 247 248 244 245 246 245 244 245 243 243 243 242 243 242 243 243 243 243 244 246 246 247 248 251
259 267 256 260 256 252 252 252 251 252 251 248 251 250 249 251 251 251 252 249 246 244 244 245 245 244 244 243 241 238 238 238 240 246 248 249 246 245 244 242 244 242 241 241 241 243 242 243 245 247 247 248 251 251
260 260 254 252 252 250 247 250 248 248 249 249 250 251 249 249 250 253 246 244 244 245 242 241 240 238 239 238 239 240 239 241 241 240 241 240 239 239 241 240 241 243 242 243 240 241 244 249 250 249 249 251 251 251
256 247 246 245 246 243 243 244 246 245 247 247 248 248 248 248 250 251 244 238 240 241 240 238 237 240 241 241 239 238 238 237 238 239 238 243 243 241 238 239 238 239 242 242 243 243 245 246 250 249 250 250 249 250
250 241 243 239 241 242 241 240 241 244 241 241 245 247 247 246 252 249 244 240 238 237 238 235 236 237 238 236 237 237 237 238 241 241 239 238 238 240 241 240 240 241 240 243 242 243 244 246 248 249 249 249 249 249
238 237 238 233 238 239 237 238 237 237 237 240 239 241 241 246 252 247 240 238 238 239 238 238 239 238 239 237 238 239 240 236 238 240 240 240 242 242 240 241 242 245 243 242 244 245 246 248 248 249 250 250 250 249
238 236 237 236 237 237 237 236 236 238 236 238 236 238 239 243 242 242 238 238 239 238 237 237 237 238 239 238 238 237 236 237 241 242 240 240 243 243 245 244 244 247 246 246 247 248 248 249 249 249 249 249 248 248
236 235 237 236 236 232 233 233 234 235 236 237 236 239 241 242 243 241 242 241 237 236 237 235 236 237 238 238 238 239 240 239 241 243 245 245 243 244 245 246 249 254 250 250 250 249 249 249 249 249 248 248 248 248
237 234 236 236 235 236 234 235 235 234 237 233 237 238 239 239 237 236 239 239 235 237 238 238 239 235 237 238 238 238 239 242 244 243 243 243 245 248 248 248 249 250 250 249 252 252 249 249 249 249 249 248 248 246
237 233 236 233 237 237 237 236 234 233 233 236 236 239 239 238 239 236 236 236 239 238 238 237 236 238 238 239 239 240 238 241 243 244 244 245 247 246 246 248 249 249 249 248 248 248 251 250 249 246 246 245 244 243
234 233 236 235 237 235 234 233 231 232 232 233 231 235 236 237 240 236 240 238 237 234 237 238 237 236 238 240 241 243 245 244 246 246 247 249 250 250 250 250 249 247 247 246 247 246 246 246 244 243 241 241 241 242
235 235 237 239 238 235 232 233 233 234 234 236 237 235 237 238 240 241 242 241 241 242 245 245 246 247 247 248 249 250 252 250 250 250 250 250 250 250 249 248 245 241 242 244 243 242 241 239 240 240 241 241 242 242
234 233 233 236 238 239 236 236 237 238 238 238 238 237 237 239 243 246 245 245 245 245 245 247 248 249 250 250 251 251 252 251 252 255 256 254 251 249 243 241 239 239 240 241 241 241 240 240 241 241 242 243 243 244
Wind_Speed
20 23 24 23 24 22 22 21 20 21 21 20 19 18 19 21 21 10 2 14 8 4 4 8 9 7 4 4 6 4 4 1 2 4 5 5 4 7 3 4 7 9 8 6 4 6 13 7 5 8 5 1 5 4
20 21 21 23 25 25 25 23 20 20 22 20 21 20 19 20 20 17 3 7 11 5 4 7 9 13 12 11 8 2 4 5 5 4 1 3 1 0 5 4 3 3 8 8 10 9 5 4 4 3 5 6 4 2
21 22 23 24 25 26 25 25 22 22 23 22 21 20 20 21 20 18 4 3 8 3 2 3 11 6 3 7 9 7 3 4 3 4 5 3 3 4 5 6 2 4 4 3 4 7 6 2 2 1 4 3 3 5
25 25 25 25 26 28 27 25 26 26 22 22 21 19 20 20 19 18 5 5 2 1 4 6 2 14 9 8 8 6 8 4 6 3 4 4 4 2 3 3 5 6 6 5 3 6 2 4 3 5 5 7 6 7
24 25 25 26 25 29 27 26 25 25 25 24 23 21 20 19 19 12 4 5 5 4 1 2 3 6 15 14 11 9 11 7 3 4 3 3 2 4 2 3 4 6 7 6 6 4 4 5 6 6 6 7 7 7
24 22 22 22 24 26 26 27 25 24 24 23 22 21 21 20 19 3 2 5 8 3 1 2 2 2 6 14 13 13 10 4 4 6 4 2 2 5 4 4 9 6 5 6 5 3 6 7 7 3 5 6 6 7
26 25 23 22 21 24 27 26 24 24 23 23 21 21 20 20 9 4 5 4 17 8 2 2 3 3 7 8 4 3 2 3 5 4 2 4 3 6 4 6 8 8 9 6 4 5 4 5 3 2 3 5 5 4
28 31 32 26 22 20 26 27 26 24 24 22 21 21 21 20 15 9 7 7 10 4 4 4 2 2 9 5 7 3 5 2 2 4 2 4 2 3 4 15 16 9 7 7 5 3 1 2 2 3 3 4 6 5
32 43 22 25 23 18 24 27 26 25 22 21 21 21 10 8 6 4 11 15 5 5 3 2 9 4 5 3 4 3 3 5 4 5 5 7 4 8 15 17 7 8 9 6 3 2 2 4 2 2 3 2 3 6
33 40 10 13 18 15 18 25 24 23 23 22 12 5 5 6 13 10 4 5 7 6 5 2 1 6 10 2 3 4 3 4 4 4 7 5 6 14 4 4 7 8 7 7 4 3 2 2 2 3 2 2 3 6
26 31 24 6 8 13 15 20 23 22 22 4 5 5 3 14 5 5 6 7 5 7 5 4 6 4 2 8 5 1 4 4 6 5 8 4 5 17 9 8 6 6 6 5 3 2 2 4 4 4 4 3 4 6
28 23 25 21 19 12 10 15 24 17 5 8 6 6 3 3 5 7 6 5 6 10 5 11 6 3 2 4 4 4 4 4 7 6 5 5 8 4 10 8 8 7 6 6 3 3 1 3 2 3 4 4 4 6
26 21 21 25 20 19 13 14 17 25 15 3 5 7 6 7 15 9 12 5 5 6 10 6 11 7 3 2 3 4 6 4 9 5 6 7 3 5 6 7 7 5 6 5 3 1 0 1 2 2 4 3 5 6
27 25 16 25 25 23 21 18 11 25 6 4 4 8 6 5 5 4 4 12 6 2 13 15 8 5 4 4 3 5 3 6 4 5 7 5 8 10 7 5 7 6 5 5 3 2 2 2 3 3 3 3 4 6
27 22 11 20 28 23 20 15 16 7 4 5 2 5 4 2 1 3 1 5 4 8 12 11 3 5 3 5 4 5 4 5 6 9 6 3 7 12 10 5 6 6 5 4 3 3 3 1 2 2 3 4 4 4
26 14 7 29 27 18 17 8 8 4 6 4 8 3 1 2 1 4 3 3 4 7 10 2 5 5 4 5 6 6 10 7 7 5 2 6 8 8 8 6 4 4 4 4 3 3 2 3 3 2 3 3 4 2
15 2 23 28 25 9 19 6 5 10 5 5 4 0 3 4 2 2 2 3 5 3 4 3 6 4 5 3 2 4 8 4 3 1 2 4 8 8 7 5 4 4 3 3 2 2 2 0 3 3 1 3 2 2
3 7 23 25 15 6 5 7 6 6 7 4 3 2 3 1 3 1 3 3 3 2 1 2 4 4 4 7 4 3 3 1 3 4 4 4 5 6 5 6 4 4 4 2 2 1 2 4 3 2 3 2 1 3
7 8 22 21 7 6 6 7 5 7 3 0 1 1 1 2 2 3 4 4 3 2 1 1 5 3 3 1 1 2 5 1 5 4 3 3 4 6 6 4 4 3 4 3 2 3 2 2 2 2 2 2 2 1
10 9 21 14 10 6 7 5 4 6 3 1 3 3 2 2 3 2 4 6 4 4 9 7 3 2 2 3 3 2 1 3 6 5 3 2 2 4 4 4 3 3 3 4 2 2 2 2 3 2 1 2 3 1
8 9 15 7 6 8 6 3 5 3 2 3 2 2 2 2 3 5 6 6 6 7 4 3 2 1 1 0 1 2 4 3 2 3 4 3 2 3 3 2 3 3 3 2 3 1 2 2 2 1 2 1 1 1
3 12 4 8 7 5 6 5 3 0 3 1 2 2 4 4 5 5 5 8 6 3 2 2 1 2 3 4 3 4 2 1 2 3 4 8 4 3 1 2 3 2 2 3 3 4 3 3 1 1 1 1 1 0
8 6 6 9 8 9 3 4 6 6 5 4 3 4 4 3 3 4 6 3 1 1 1 1 1 1 1 3 3 4 4 3 2 2 3 3 3 3 3 1 2 4 2 3 2 3 3 2 1 1 0 0 1 1
11 10 9 7 7 2 3 6 4 4 4 5 4 3 5 4 6 5 4 2 3 3 3 3 2 3 4 5 3 2 3 1 2 3 2 4 4 1 1 1 1 2 3 3 3 3 2 1 2 1 1 1 1 1
10 13 8 9 4 6 7 6 6 5 4 4 3 3 3 4 2 4 1 3 3 2 2 3 2 2 3 2 2 3 3 2 3 3 3 2 4 3 3 2 2 3 2 3 2 2 2 2 2 2 2 2 3 3
13 5 6 2 5 5 2 4 4 1 1 3 1 3 3 1 3 1 2 3 3 3 3 4 4 1 2 2 1 1 3 1 3 2 3 4 4 4 3 3 1 4 4 3 4 3 3 3 3 3 3 3 5 4
8 5 4 0 2 2 4 2 1 3 4 3 3 5 3 4 1 4 3 3 3 4 4 3 3 3 3 2 3 3 3 3 2 3 2 2 3 3 4 4 4 4 4 4 3 3 3 3 3 3 3 3 4 4
3 2 4 5 4 1 4 3 4 2 2 2 1 4 3 3 4 4 4 3 3 1 1 1 2 3 2 3 2 1 1 1 2 2 2 1 1 2 3 2 2 4 2 3 3 3 3 3 3 4 5 6 5 4
4 3 2 5 4 5 3 2 2 3 2 3 3 2 4 4 3 2 3 2 2 3 2 1 2 1 1 1 1 0 2 3 4 3 1 2 2 3 4 3 2 2 2 2 5 6 7 6 6 6 6 5 5 3
4 1 4 2 5 3 4 4 3 3 2 3 2 3 3 4 4 1 3 2 2 3 3 3 1 3 2 2 2 3 3 4 4 4 4 3 4 2 2 3 4 3 3 3 3 3 6 4 5 3 3 4 4 5
1 3 4 3 2 3 4 2 2 1 2 1 1 3 4 4 5 2 3 3 3 3 2 1 2 3 3 3 3 1 3 3 7 8 6 4 3 3 3 3 3 3 3 3 4 4 4 4 4 6 7 8 9 9
3 3 3 2 3 4 4 3 1 1 2 2 3 1 4 4 4 4 3 4 3 3 6 5 4 5 6 5 4 4 5 2 4 5 7 5 5 4 4 3 3 3 3 4 4 4 4 7 6 7 9 11 12 12
2 1 1 2 4 4 4 3 4 4 2 2 2 1 1 2 5 4 2 3 4 4 5 5 4 3 4 5 5 4 6 3 4 8 8 8 7 6 4 3 3 4 5 5 5 5 8 9 10 12 12 13 14 14
Wind_Direction
278 276 269 263 260 249 251 252 251 242 236 228 233 236 238 237 236 227 247 199 194 206 223 180 166 142 113 159 154 217 112 28 69 135 153 194 147 210 130 173 171 162 157 201 150 198 259 160 105 171 204 83 161 199
286 283 277 270 258 252 247 242 241 237 239 229 226 232 236 237 239 234 230 182 205 197 212 200 207 194 179 177 143 190 163 158 165 116 153 103 115 86 153 218 159 202 182 177 179 202 231 189 155 181 163 155 194 217
295 284 280 277 263 254 245 236 232 232 232 229 228 228 232 238 235 227 215 181 194 236 177 171 205 210 170 170 164 133 302 151 171 164 151 168 173 111 154 243 107 246 158 192 98 230 218 204 205 207 174 161 258 229
291 285 278 274 270 253 244 237 229 229 227 234 233 229 234 231 234 232 207 160 188 211 236 218 47 201 170 165 169 157 143 108 111 103 108 150 155 161 205 177 174 199 138 177 254 278 182 218 182 147 206 245 248 249
289 279 275 277 274 253 236 232 228 225 226 225 228 228 222 228 227 230 207 185 178 197 263 274 316 222 183 183 165 140 147 134 138 86 123 213 145 98 337 58 254 170 178 189 220 190 131 255 292 330 315 293 287 290
325 300 284 282 276 250 231 225 223 223 225 221 221 222 225 220 215 126 215 206 184 208 198 249 301 194 164 180 160 155 155 115 115 136 186 215 227 113 137 204 246 173 184 159 223 179 189 252 276 316 282 310 344 323
334 324 307 290 281 247 224 218 219 216 212 218 221 218 218 216 201 189 183 228 175 140 241 229 235 250 184 153 152 118 120 145 126 142 153 141 176 133 112 215 228 156 197 198 210 134 243 213 251 23 7 352 348 312
327 319 303 283 281 249 228 209 212 210 208 214 213 213 218 218 214 208 217 123 156 136 193 206 209 159 170 156 178 129 165 116 159 140 73 132 94 92 228 242 252 221 204 229 198 122 171 342 95 71 21 9 344 329
338 314 299 237 254 245 223 205 206 210 208 211 214 212 219 206 196 210 186 215 201 231 220 165 155 174 154 131 121 131 136 179 138 158 167 139 157 207 221 231 183 175 177 180 105 116 176 185 175 79 33 10 304 309
345 347 323 200 216 215 204 206 208 210 208 210 210 190 194 201 174 154 188 198 196 208 191 261 350 160 178 126 130 115 134 150 167 201 127 186 220 240 185 139 137 148 147 131 128 218 168 219 230 305 280 297 294 295
355 4 20 9 226 219 223 216 215 211 214 169 165 202 215 162 139 172 204 202 169 179 190 161 174 162 214 151 144 217 161 150 160 187 147 180 249 228 137 142 139 133 137 124 80 88 136 175 240 263 273 262 279 288
346 6 10 23 32 30 333 274 229 211 183 195 137 115 106 173 188 190 180 192 199 193 164 169 168 158 193 115 122 170 145 150 188 137 117 215 243 141 157 160 153 138 133 132 135 161 220 252 286 274 272 272 273 279
342 348 9 3 8 2 356 345 236 212 161 165 169 154 161 185 215 165 169 226 196 190 157 161 165 150 135 160 134 159 149 167 123 143 202 222 187 167 150 134 123 123 128 126 124 112 67 266 321 224 272 257 278 285
342 338 6 353 355 359 359 359 348 186 151 182 158 135 198 176 217 177 217 189 169 178 170 164 147 149 161 132 137 138 108 138 148 151 226 230 198 164 145 119 124 152 134 135 166 190 240 237 269 293 264 285 290 290
340 340 1 345 353 357 359 16 34 57 69 82 301 148 180 210 233 201 117 319 278 180 169 140 91 124 123 130 130 121 134 158 176 207 221 188 146 147 140 131 138 150 158 170 170 190 219 229 260 278 289 296 294 314
340 342 352 348 349 1 2 34 27 68 70 78 32 69 346 90 83 26 37 278 330 216 142 83 134 129 142 154 136 185 132 192 221 204 162 120 132 123 126 134 155 163 166 177 187 191 212 173 189 226 330 347 337 360
342 333 333 342 346 10 20 72 52 47 69 53 54 233 303 48 18 314 273 294 326 252 154 141 127 154 123 125 118 178 193 210 159 83 57 101 127 128 125 128 155 161 159 165 154 177 203 141 109 80 61 291 320 359
280 304 334 345 355 31 42 35 73 69 67 24 29 344 34 34 274 272 291 303 321 8 19 146 121 94 125 153 233 171 111 150 72 93 99 102 109 118 131 140 154 164 156 142 124 86 80 94 110 221 222 239 51 28
295 329 346 356 28 76 55 26 35 86 65 356 13 357 247 222 203 294 310 317 278 274 271 27 86 119 143 42 53 87 139 129 141 144 112 82 113 128 128 114 124 121 121 130 151 138 135 145 190 215 195 111 109 26
334 327 352 15 33 69 59 11 32 82 86 39 7 349 323 345 326 324 340 1 12 30 41 37 50 38 19 10 359 46 97 135 113 82 40 34 81 103 127 143 143 137 106 82 82 105 76 40 4 18 81 113 105 59
15 335 353 37 46 56 78 10 49 82 137 84 297 329 310 346 18 9 4 341 64 34 64 27 38 7 337 338 25 19 55 55 95 147 163 156 181 126 119 76 112 94 120 172 137 92 101 166 236 248 104 95 100 67
312 358 30 14 71 52 76 14 101 317 68 212 31 19 25 20 359 14 315 40 51 29 16 27 21 356 15 21 348 29 298 42 64 87 82 103 109 98 82 160 111 148 188 191 164 160 205 233 222 144 125 207 143 214
13 19 45 17 68 40 314 359 57 1 58 349 355 41 27 11 343 311 73 60 90 44 351 46 344 339 75 336 39 32 27 78 75 78 70 76 76 72 101 110 167 140 167 252 173 155 185 208 173 157 236 240 249 240
32 46 37 39 28 50 357 19 19 29 32 28 38 32 1 341 324 45 64 327 283 329 11 348 15 18 6 25 36 332 312 55 90 50 32 101 91 357 45 136 230 232 208 165 146 153 168 193 209 190 221 258 268 285
66 359 30 7 4 43 36 17 358 42 55 345 52 26 7 329 43 53 67 279 313 316 307 330 42 62 138 266 297 280 282 136 134 153 266 138 116 64 25 357 286 251 192 122 155 160 206 197 208 211 226 239 270 289
66 316 51 325 351 55 331 60 33 37 26 49 2 315 343 9 57 15 262 224 224 215 219 191 174 88 340 203 173 283 249 191 122 94 271 171 153 136 164 171 237 277 200 184 153 178 199 199 205 229 256 263 268 277
60 342 332 173 130 101 49 19 76 77 57 38 319 355 32 73 301 258 278 224 213 229 205 173 136 139 182 263 259 251 234 208 171 201 245 173 164 171 155 175 216 245 162 169 172 174 195 205 225 239 257 265 252 255
137 44 69 312 38 17 112 55 44 51 289 270 72 30 105 168 223 233 206 221 198 162 129 198 200 172 180 220 224 156 29 19 24 20 17 3 225 214 215 225 244 181 161 168 174 178 199 219 241 256 262 263 267 243
39 323 80 18 20 42 63 116 208 245 209 104 111 283 260 241 237 223 259 204 129 98 81 16 294 4 356 347 22 237 134 128 115 113 212 276 323 265 184 192 207 163 180 193 236 204 209 220 230 235 246 255 270 276
321 33 80 42 68 22 262 167 220 248 219 194 210 319 311 284 252 181 113 93 130 200 212 189 200 132 198 150 289 306 241 192 192 164 177 213 230 241 172 188 205 205 193 207 237 273 296 322 329 329 293 278 270 277
313 43 65 53 130 249 233 265 308 340 10 323 301 156 247 290 305 235 196 187 154 121 109 236 278 212 177 206 189 200 285 237 213 224 230 248 227 221 218 219 209 193 191 204 226 234 250 261 254 270 274 272 272 265
17 73 110 57 306 292 18 43 322 25 314 19 296 289 324 359 299 277 200 132 134 192 219 204 211 234 211 224 222 227 235 216 192 212 217 226 234 230 229 217 193 175 190 219 221 228 229 244 258 255 263 268 268 268
37 39 74 69 10 4 333 20 10 338 360 330 293 272 248 211 254 280 292 209 186 192 199 213 223 216 218 220 221 231 233 230 232 252 248 237 232 228 209 200 184 188 207 227 235 232 243 245 254 257 259 262 267 271